Location: Winthrop
(48.4780°N, 120.1850°W)
Time: 02:24:21
(UTC-08:00)

Vanguard 1 - All Passes

Search period start: 31 January 2023 00:00
Search period end: 10 February 2023 00:00
Orbit: 649 x 3831 km, 34.2° (Epoch: 30 January)

Date Brightness Start Highest point End Pass type
(mag) Time Alt. Az. Time Alt. Az. Time Alt. Az.
31 Jan - 04:23:27 10° S 04:28:51 19° SE 04:36:26 10° E visible
31 Jan - 06:39:20 10° SW 06:48:19 41° SSE 07:03:45 10° ESE visible
31 Jan - 08:58:17 10° WSW 09:10:18 45° S 09:29:32 10° SE daylight
31 Jan - 11:19:41 10° W 11:33:26 31° SSW 11:51:32 10° SSE daylight
31 Jan - 13:49:58 10° WSW 13:55:48 12° SW 14:01:55 10° SSW daylight
01 Feb - 04:42:37 10° SSW 04:48:45 24° SE 04:57:58 10° E visible
01 Feb - 06:59:28 10° WSW 07:08:42 43° S 07:24:38 10° ESE daylight
01 Feb - 09:18:48 10° WSW 09:30:53 42° SSW 09:49:47 10° SE daylight
01 Feb - 11:40:59 10° W 11:53:52 26° SSW 12:10:15 10° SSE daylight
02 Feb - 05:02:10 10° SSW 05:08:46 28° SSE 05:19:12 10° E visible
02 Feb - 07:19:42 10° WSW 07:29:08 43° S 07:45:23 10° ESE daylight
02 Feb - 09:39:27 10° WSW 09:51:27 37° SSW 10:09:45 10° SE daylight
02 Feb - 12:02:51 10° WSW 12:14:15 20° SW 12:28:10 10° S daylight
03 Feb - 05:21:58 10° SW 05:28:53 32° SSE 05:40:14 10° ESE visible
03 Feb - 07:40:02 10° WSW 07:49:38 42° S 08:06:01 10° ESE daylight
03 Feb - 10:00:14 10° W 10:12:02 33° SSW 10:29:21 10° SSE daylight
03 Feb - 12:25:49 10° WSW 12:34:35 15° SW 12:44:42 10° SSW daylight
04 Feb - 03:26:48 10° SSE 03:30:12 14° SE 03:34:27 10° ESE visible
04 Feb - 05:41:58 10° SW 05:49:06 35° SSE 06:01:10 10° ESE visible
04 Feb - 08:00:27 10° WSW 08:10:09 40° S 08:26:27 10° SE daylight
04 Feb - 10:21:14 10° WSW 10:32:34 28° SSW 10:48:31 10° SSE daylight
05 Feb - 03:45:41 10° S 03:50:07 18° SE 03:56:11 10° ESE visible
05 Feb - 06:02:05 10° SW 06:09:26 37° S 06:21:59 10° ESE visible
05 Feb - 08:20:57 10° WSW 08:30:43 37° S 08:46:39 10° SE daylight
05 Feb - 10:42:38 10° WSW 10:53:04 23° SSW 11:07:04 10° S daylight
06 Feb - 04:05:08 10° SSW 04:10:08 23° SSE 04:17:26 10° ESE visible
06 Feb - 06:22:18 10° WSW 06:29:49 37° S 06:42:40 10° ESE visible
06 Feb - 08:41:35 10° WSW 08:51:16 33° SSW 09:06:34 10° SE daylight
06 Feb - 11:04:42 10° WSW 11:13:33 17° SW 11:24:40 10° S daylight
07 Feb - 04:24:53 10° SSW 04:30:15 26° SSE 04:38:26 10° ESE visible
07 Feb - 06:42:37 10° WSW 06:50:15 36° S 07:03:13 10° ESE visible
07 Feb - 09:02:24 10° WSW 09:11:49 28° SSW 09:26:05 10° SSE daylight
07 Feb - 11:28:33 10° WSW 11:34:00 12° SW 11:40:12 10° SSW daylight
08 Feb - 04:44:51 10° SW 04:50:27 29° SSE 04:59:17 10° ESE visible
08 Feb - 07:03:02 10° WSW 07:10:44 34° S 07:23:35 10° SE daylight
08 Feb - 09:23:30 10° WSW 09:32:23 23° SSW 09:45:06 10° SSE daylight
09 Feb - 02:49:02 10° S 02:51:48 14° SSE 02:55:08 10° ESE visible
09 Feb - 05:04:57 10° SW 05:10:44 31° S 05:20:01 10° ESE visible
09 Feb - 07:23:33 10° WSW 07:31:14 31° S 07:43:42 10° SE daylight
09 Feb - 09:45:06 10° WSW 09:52:55 18° SSW 10:03:22 10° S daylight
